| time (UTC) | temp F | wind direction | speed MPH | gust MPH | rain 1hr in | rain 24hr in | rain mn in | humidity % | barometer mb |
| 20260505051212 | 66 | 302 | 4.0 | 12.0 | 0.00 | 0.00 | 0.00 | 40 | 1006.5 |
| 20260505050706 | 67 | 49 | 4.0 | 10.0 | 0.00 | 0.00 | 0.00 | 40 | 1006.4 |
| 20260505050200 | 67 | 355 | 4.0 | 9.0 | 0.00 | 0.00 | 0.00 | 40 | 1006.1 |
| 20260505041635 | 70 | 18 | 2.0 | 9.0 | 0.00 | 0.00 | 0.00 | 40 | 1005.7 |
| 20260505041135 | 70 | 42 | 2.0 | 6.0 | 0.00 | 0.00 | 0.00 | 40 | 1005.6 |
| 20260505040636 | 71 | 297 | 2.0 | 8.0 | 0.00 | 0.00 | 0.00 | 41 | 1005.4 |
| 20260505035635 | 71 | 294 | 2.0 | 5.0 | 0.00 | 0.00 | 0.00 | 42 | 1005.5 |
| 20260505034635 | 71 | 297 | 3.0 | 9.0 | 0.00 | 0.00 | 0.00 | 43 | 1005.6 |
| 20260505034134 | 71 | 63 | 2.0 | 11.0 | 0.00 | 0.00 | 0.00 | 46 | 1005.4 |
| 20260505033637 | 71 | 313 | 2.0 | 11.0 | 0.00 | 0.00 | 0.00 | 47 | 1005.5 |
| 20260505033137 | 70 | 299 | 2.0 | 7.0 | 0.00 | 0.00 | 0.00 | 52 | 1005.3 |
| 20260505032638 | 70 | 288 | 2.0 | 7.0 | 0.00 | 0.00 | 0.00 | 55 | 1005.2 |
| 20260505032137 | 70 | 294 | 2.0 | 8.0 | 0.00 | 0.00 | 0.00 | 59 | 1005.0 |
| 20260505031635 | 70 | 281 | 1.0 | 8.0 | 0.00 | 0.00 | 0.00 | 64 | 1004.8 |
| 20260505031134 | 70 | 294 | 0.0 | 3.0 | 0.00 | 0.00 | 0.00 | 67 | 1004.6 |
| 20260505030634 | 70 | 140 | 0.0 | 0.0 | 0.00 | 0.00 | 0.00 | 67 | 1004.3 |
| 20260505030134 | 70 | 140 | 0.0 | 0.0 | 0.00 | 0.00 | 0.00 | 66 | 1004.0 |
| 20260505025635 | 71 | 140 | 0.0 | 0.0 | 0.00 | 0.00 | 0.00 | 65 | 1003.8 |
| 20260505025135 | 71 | 140 | 0.0 | 0.0 | 0.00 | 0.00 | 0.00 | 65 | 1003.9 |
| 20260505024635 | 71 | 140 | 0.0 | 0.0 | 0.00 | 0.00 | 0.00 | 65 | 1003.9 |
| 20260505023634 | 71 | 140 | 0.0 | 0.0 | 0.00 | 0.00 | 0.00 | 65 | 1003.8 |
| 20260505023132 | 71 | 140 | 0.0 | 1.0 | 0.00 | 0.00 | 0.00 | 64 | 1003.7 |
| 20260505022128 | 71 | 140 | 1.0 | 2.0 | 0.00 | 0.00 | 0.00 | 64 | 1003.3 |
| 20260505021628 | 72 | 137 | 0.0 | 2.0 | 0.00 | 0.00 | 0.00 | 64 | 1003.5 |
| 20260505021129 | 72 | 137 | 0.0 | 2.0 | 0.00 | 0.00 | 0.00 | 63 | 1003.3 |
| 20260505020629 | 72 | 136 | 1.0 | 3.0 | 0.00 | 0.00 | 0.00 | 63 | 1003.3 |
| 20260505020128 | 72 | 136 | 1.0 | 3.0 | 0.00 | 0.00 | 0.00 | 62 | 1003.2 |
| 20260505015630 | 73 | 134 | 1.0 | 3.0 | 0.00 | 0.00 | 0.00 | 62 | 1003.2 |
| 20260505014616 | 73 | 136 | 0.0 | 2.0 | 0.00 | 0.00 | 0.00 | 61 | 1003.1 |
| 20260505013604 | 74 | 136 | 0.0 | 0.0 | 0.00 | 0.00 | 0.00 | 61 | 1002.9 |
| 20260505013057 | 75 | 136 | 0.0 | 0.0 | 0.00 | 0.00 | 0.00 | 60 | 1002.9 |
| 20260505012045 | 76 | 136 | 0.0 | 0.0 | 0.00 | 0.00 | 0.00 | 57 | 1002.7 |
| 20260505011539 | 76 | 136 | 0.0 | 0.0 | 0.00 | 0.00 | 0.00 | 56 | 1002.6 |
| 20260505011033 | 76 | 136 | 0.0 | 0.0 | 0.00 | 0.00 | 0.00 | 55 | 1002.5 |
| 20260505010527 | 77 | 136 | 0.0 | 0.0 | 0.00 | 0.00 | 0.00 | 55 | 1002.5 |
| 20260505005515 | 78 | 136 | 0.0 | 1.0 | 0.00 | 0.00 | 0.00 | 54 | 1002.5 |
| 20260505005009 | 78 | 136 | 0.0 | 1.0 | 0.00 | 0.00 | 0.00 | 53 | 1002.4 |
| 20260505004503 | 78 | 136 | 0.0 | 1.0 | 0.00 | 0.00 | 0.00 | 52 | 1002.4 |
| 20260505003958 | 78 | 136 | 0.0 | 2.0 | 0.00 | 0.00 | 0.00 | 52 | 1002.5 |
| 20260505003452 | 78 | 136 | 0.0 | 2.0 | 0.00 | 0.00 | 0.00 | 51 | 1002.5 |
| 20260505002944 | 79 | 136 | 0.0 | 1.0 | 0.00 | 0.00 | 0.00 | 51 | 1002.4 |
| 20260505001933 | 79 | 136 | 0.0 | 1.0 | 0.00 | 0.00 | 0.00 | 52 | 1002.5 |
| 20260505001427 | 80 | 136 | 0.0 | 1.0 | 0.00 | 0.00 | 0.00 | 50 | 1002.5 |
| 20260505000415 | 80 | 136 | 0.0 | 0.0 | 0.00 | 0.00 | 0.00 | 49 | 1002.6 |
| 20260504235909 | 80 | 136 | 0.0 | 1.0 | 0.00 | 0.00 | 0.00 | 49 | 1002.6 |
| 20260504235403 | 80 | 136 | 0.0 | 2.0 | 0.00 | 0.00 | 0.00 | 48 | 1002.5 |
| 20260504234856 | 81 | 136 | 1.0 | 2.0 | 0.00 | 0.00 | 0.00 | 47 | 1002.6 |
| 20260504234351 | 81 | 136 | 0.0 | 2.0 | 0.00 | 0.00 | 0.00 | 47 | 1002.6 |
| 20260504233845 | 81 | 136 | 0.0 | 2.0 | 0.00 | 0.00 | 0.00 | 47 | 1002.6 |
| 20260504233340 | 82 | 138 | 0.0 | 2.0 | 0.00 | 0.00 | 0.00 | 46 | 1002.7 |
| 20260504232833 | 82 | 138 | 0.0 | 2.0 | 0.00 | 0.00 | 0.00 | 45 | 1002.6 |
| 20260504231821 | 82 | 138 | 0.0 | 2.0 | 0.00 | 0.00 | 0.00 | 44 | 1002.7 |
| 20260504231315 | 82 | 141 | 0.0 | 2.0 | 0.00 | 0.00 | 0.00 | 44 | 1002.6 |
| 20260504230809 | 83 | 134 | 0.0 | 2.0 | 0.00 | 0.00 | 0.00 | 43 | 1002.7 |
| 20260504230304 | 83 | 134 | 0.0 | 2.0 | 0.00 | 0.00 | 0.00 | 42 | 1002.7 |
| 20260504225757 | 83 | 134 | 0.0 | 2.0 | 0.00 | 0.00 | 0.00 | 42 | 1002.7 |
| 20260504225252 | 83 | 134 | 0.0 | 1.0 | 0.00 | 0.00 | 0.00 | 41 | 1002.5 |
| 20260504224745 | 83 | 134 | 0.0 | 3.0 | 0.00 | 0.00 | 0.00 | 40 | 1002.5 |
| 20260504223733 | 84 | 185 | 0.0 | 5.0 | 0.00 | 0.00 | 0.00 | 41 | 1002.5 |
| 20260504223230 | 85 | 170 | 0.0 | 4.0 | 0.00 | 0.00 | 0.00 | 41 | 1002.4 |
| 20260504222228 | 85 | 180 | 1.0 | 2.0 | 0.00 | 0.00 | 0.00 | 40 | 1002.5 |
| 20260504221225 | 85 | 146 | 1.0 | 3.0 | 0.00 | 0.00 | 0.00 | 40 | 1002.5 |
| 20260504220726 | 85 | 170 | 2.0 | 7.0 | 0.00 | 0.00 | 0.00 | 42 | 1002.5 |
| 20260504220224 | 85 | 169 | 1.0 | 7.0 | 0.00 | 0.00 | 0.00 | 40 | 1002.5 |
| 20260504215724 | 86 | 219 | 0.0 | 3.0 | 0.00 | 0.00 | 0.00 | 43 | 1002.4 |
| 20260504215224 | 86 | 222 | 1.0 | 5.0 | 0.00 | 0.00 | 0.00 | 40 | 1002.5 |
| 20260504214222 | 86 | 152 | 1.0 | 5.0 | 0.00 | 0.00 | 0.00 | 40 | 1002.7 |
| 20260504213222 | 86 | 144 | 1.0 | 6.0 | 0.00 | 0.00 | 0.00 | 40 | 1002.8 |
| 20260504212221 | 86 | 231 | 0.0 | 2.0 | 0.00 | 0.00 | 0.00 | 42 | 1002.7 |
| 20260504211719 | 85 | 210 | 0.0 | 3.0 | 0.00 | 0.00 | 0.00 | 42 | 1002.8 |
| 20260504211219 | 85 | 207 | 1.0 | 6.0 | 0.00 | 0.00 | 0.00 | 40 | 1002.8 |
| 20260504210718 | 85 | 155 | 1.0 | 6.0 | 0.00 | 0.00 | 0.00 | 40 | 1003.0 |
| 20260504210218 | 85 | 165 | 1.0 | 3.0 | 0.00 | 0.00 | 0.00 | 40 | 1003.0 |
| 20260504205712 | 86 | 177 | 1.0 | 3.0 | 0.00 | 0.00 | 0.00 | 42 | 1003.0 |
| 20260504205206 | 85 | 233 | 0.0 | 3.0 | 0.00 | 0.00 | 0.00 | 41 | 1003.1 |
| 20260504203652 | 85 | 246 | 1.0 | 9.0 | 0.00 | 0.00 | 0.00 | 40 | 1003.2 |
| 20260504202657 | 86 | 163 | 2.0 | 8.0 | 0.00 | 0.00 | 0.00 | 40 | 1003.3 |
| 20260504202152 | 86 | 177 | 2.0 | 8.0 | 0.00 | 0.00 | 0.00 | 40 | 1003.3 |
| 20260504201652 | 86 | 155 | 1.0 | 5.0 | 0.00 | 0.00 | 0.00 | 41 | 1003.3 |
| 20260504201153 | 86 | 128 | 1.0 | 5.0 | 0.00 | 0.00 | 0.00 | 40 | 1003.3 |
| 20260504200153 | 86 | 190 | 2.0 | 6.0 | 0.00 | 0.00 | 0.00 | 39 | 1003.6 |
| 20260504195649 | 86 | 220 | 2.0 | 7.0 | 0.00 | 0.00 | 0.00 | 38 | 1003.6 |
| 20260504195149 | 86 | 149 | 1.0 | 7.0 | 0.00 | 0.00 | 0.00 | 39 | 1003.6 |
| 20260504194650 | 86 | 188 | 1.0 | 4.0 | 0.00 | 0.00 | 0.00 | 39 | 1003.6 |
| 20260504194149 | 87 | 184 | 1.0 | 4.0 | 0.00 | 0.00 | 0.00 | 38 | 1003.6 |
| 20260504192646 | 86 | 265 | 1.0 | 6.0 | 0.00 | 0.00 | 0.00 | 41 | 1003.6 |
| 20260504192147 | 86 | 242 | 2.0 | 7.0 | 0.00 | 0.00 | 0.00 | 42 | 1003.6 |
| 20260504191646 | 86 | 231 | 2.0 | 7.0 | 0.00 | 0.00 | 0.00 | 40 | 1003.7 |
| 20260504191146 | 86 | 155 | 2.0 | 6.0 | 0.00 | 0.00 | 0.00 | 41 | 1003.7 |
| 20260504190646 | 86 | 149 | 2.0 | 7.0 | 0.00 | 0.00 | 0.00 | 39 | 1003.7 |
| 20260504190147 | 86 | 161 | 2.0 | 8.0 | 0.00 | 0.00 | 0.00 | 40 | 1003.7 |
| 20260504184142 | 86 | 155 | 1.0 | 3.0 | 0.00 | 0.00 | 0.00 | 44 | 1003.8 |
| 20260504183643 | 86 | 152 | 2.0 | 5.0 | 0.00 | 0.00 | 0.00 | 43 | 1003.8 |
| 20260504183142 | 85 | 227 | 1.0 | 5.0 | 0.00 | 0.00 | 0.00 | 43 | 1003.9 |
| 20260504182641 | 86 | 202 | 1.0 | 4.0 | 0.00 | 0.00 | 0.00 | 44 | 1003.9 |
| 20260504182142 | 85 | 223 | 1.0 | 4.0 | 0.00 | 0.00 | 0.00 | 42 | 1003.8 |
| 20260504181639 | 85 | 213 | 2.0 | 5.0 | 0.00 | 0.00 | 0.00 | 41 | 1003.8 |
| 20260504180139 | 85 | 245 | 1.0 | 5.0 | 0.00 | 0.00 | 0.00 | 44 | 1003.9 |
| 20260504175640 | 85 | 213 | 1.0 | 6.0 | 0.00 | 0.00 | 0.00 | 42 | 1004.0 |
| 20260504175139 | 85 | 215 | 1.0 | 6.0 | 0.00 | 0.00 | 0.00 | 42 | 1004.0 |
| 20260504174137 | 84 | 245 | 2.0 | 6.0 | 0.00 | 0.00 | 0.00 | 43 | 1004.0 |
| 20260504172619 | 83 | 108 | 1.0 | 4.0 | 0.00 | 0.00 | 0.00 | 43 | 1004.2 |
| 20260504172113 | 83 | 264 | 2.0 | 5.0 | 0.00 | 0.00 | 0.00 | 48 | 1004.2 |
| 20260504171606 | 83 | 264 | 2.0 | 5.0 | 0.00 | 0.00 | 0.00 | 44 | 1004.2 |
| 20260504171101 | 83 | 194 | 2.0 | 5.0 | 0.00 | 0.00 | 0.00 | 45 | 1004.2 |
| 20260504170554 | 82 | 275 | 2.0 | 5.0 | 0.00 | 0.00 | 0.00 | 44 | 1004.3 |
| 20260504160444 | 78 | 27 | 2.0 | 6.0 | 0.00 | 0.00 | 0.00 | 50 | 1004.2 |
| 20260504150837 | 75 | 258 | 2.0 | 9.0 | 0.00 | 0.00 | 0.00 | 52 | 1004.4 |
| 20260504150332 | 75 | 279 | 2.0 | 11.0 | 0.00 | 0.00 | 0.00 | 53 | 1004.4 |
| 20260504141232 | 71 | 238 | 2.0 | 11.0 | 0.00 | 0.00 | 0.00 | 57 | 1004.6 |
| 20260504130624 | 61 | 200 | 1.0 | 3.0 | 0.00 | 0.00 | 0.00 | 73 | 1004.2 |
| 20260504130124 | 60 | 200 | 1.0 | 3.0 | 0.00 | 0.00 | 0.00 | 74 | 1004.1 |
| 20260504120104 | 55 | 227 | 0.0 | 0.0 | 0.00 | 0.00 | 0.00 | 80 | 1004.3 |
| 20260504110556 | 55 | 227 | 0.0 | 0.0 | 0.00 | 0.00 | 0.00 | 80 | 1004.6 |
| 20260504100552 | 56 | 227 | 0.0 | 0.0 | 0.00 | 0.00 | 0.00 | 74 | 1005.2 |
| 20260504081506 | 59 | 246 | 0.0 | 2.0 | 0.00 | 0.00 | 0.00 | 67 | 1005.6 |
| 20260504081000 | 59 | 246 | 0.0 | 2.0 | 0.00 | 0.00 | 0.00 | 67 | 1005.7 |
| 20260504080453 | 59 | 246 | 0.0 | 1.0 | 0.00 | 0.00 | 0.00 | 66 | 1005.5 |
| 20260504070342 | 59 | 128 | 0.0 | 2.0 | 0.00 | 0.00 | 0.00 | 67 | 1006.1 |